Regional Weather Roundup
Issued by NWS

Home | Current Version | Previous Version | Text Only | Print | Product List | Glossary Off
Versions: 1 2 3 4 5 6 7 8 9 10 11 12 13 14 15 16 17 18 19 20 21 22 23 24 25 26 27 28 29 30 31 32 33 34 35 36 37 38 39 40 41 42 43 44 45 46 47 48 49 50

000
ASUS43 KLOT 240507
RWRIL

ILLINOIS REGIONAL WEATHER ROUNDUP
NATIONAL WEATHER SERVICE CHICAGO/ROMEOVILLE IL
1200 AM CDT FRI MAR 24 2017

NOTE: "FAIR" INDICATES FEW OR NO CLOUDS BELOW 12,000 FEET WITH NO
SIGNIFICANT WEATHER AND/OR OBSTRUCTIONS TO VISIBILITY.

* THESE STATIONS ARE NOT UNDER NWS QUALITY CONTROL. THEY ALSO MAY NOT
  REPORT WEATHER SUCH AS PRECIPITATION OR FOG.

ILZ001-002-007-009-015-016-024-240600-
NORTHWEST ILLINOIS

CITY           SKY/WX    TMP DP  RH WIND       PRES   REMARKS
MOLINE         PTCLDY    45  38  76 SE8       29.90F
STERLING*      CLOUDY    43  35  73 SE7       29.95F
SAVANNA*       PTCLDY    42  34  74 SE9       29.92F
$$

ILZ003-004-008-010-011-017-018-240600-
NORTH CENTRAL ILLINOIS

CITY           SKY/WX    TMP DP  RH WIND       PRES   REMARKS
ROCKFORD       CLOUDY    44  33  65 SE10      29.98F
FREEPORT*      CLOUDY    39  33  79 SE6       29.97F
ROCHELLE*      CLOUDY    44  33  66 SE9       29.98S
DE KALB*       PTCLDY    44  33  65 SE13      29.99S
PERU*          MOCLDY    43  35  72 S12       29.97F
$$

ILZ005-006-012>014-019>023-240600-
NORTHEAST ILLINOIS

CITY           SKY/WX    TMP DP  RH WIND       PRES   REMARKS
CHICAGO-OHARE  CLOUDY    47  33  58 S7        30.02S
CHICAGO-MIDWAY CLOUDY    50  32  50 S7        30.02S
AURORA         PTCLDY    47  33  58 SE12      30.00F
LANSING*       PTCLDY    46  35  67 S7        30.02S
JOLIET*        PTCLDY    49  35  58 S9        30.01S
WAUKEGAN       PTCLDY    40  35  83 S7        29.98F
DUPAGE AIRPORT CLOUDY    45  33  63 SE3       30.01S
KANKAKEE*      CLOUDY    47  34  60 S12G18    30.02R
WHEELING       CLOUDY    46  33  60 S5        30.04R
MORRIS*        CLOUDY    45  34  65 S9        29.99F
ROMEOVILLE*    PTCLDY    45  37  72 S12       30.00F
NORTHERLY ISL    N/A     50  29  44 S7          N/A
$$

LMZ740>746-240600-
SOUTHERN LAKE MICHIGAN

STATION/POSITION SKY/WX   TEMP    WIND        PRES    VSBY  WAVE
                          AIR SEA DIR/SP/G                  HT/PER
                          (F)     (DEG/KT/KT) (MB)    (MI)  (FT/S)
HARRISON CRIB              49     170/ 11/ 11   N/A
BURNHAM HARBOR             49     170/  4/ 10   N/A
CALUMET HARBOR             50     160/  6/  9 1015.9F
BURNS HARBOR               50     180/ 12/ 16 1016.9F
MICHIGAN CITY              49     150/ 14/ 17   N/A
$$

ILZ025>027-034>036-040-047-049-050-058-095>099-240600-
WEST-CENTRAL ILLINOIS

CITY           SKY/WX    TMP DP  RH WIND       PRES   REMARKS
QUINCY         CLOUDY    59  45  59 S13       29.90S
GALESBURG*     CLOUDY    47  41  79 SE16      29.90S
MACOMB*        MOCLDY    46  42  86 S10       29.95S
JACKSONVILLE*  CLOUDY    52  43  71 S13G21    29.96R
PITTSFIELD*    CLOUDY    60  47  62 S13       29.93S
$$

ILZ028>032-037-038-041>044-048-051>054-059>061-240600-
CENTRAL ILLINOIS

CITY           SKY/WX    TMP DP  RH WIND       PRES   REMARKS
PONTIAC        PTCLDY    47  38  70 S16       29.99S
BLOOMINGTON    PTCLDY    44  37  76 S20       29.99S
DECATUR        CLEAR     48  39  71 S18G26    30.02F
PEORIA         CLOUDY    47  40  76 S17G26    29.97R
LACON*         CLOUDY    48  38  69 S12G20    29.95F
LINCOLN*       CLOUDY    47  42  82 S10G16    29.99F
SPRINGFIELD    CLOUDY    49  42  77 S18G25    29.99S
TAYLORVILLE    CLEAR     46  41  81 S13       30.01F
$$

ILZ033-039-045-046-055>057-062-063-240600-
EAST-CENTRAL ILLINOIS

CITY           SKY/WX    TMP DP  RH WIND       PRES   REMARKS
CHAMPAIGN      CLEAR     48  36  63 S18       30.02F
RANTOUL*       CLOUDY    48  39  70 S17       30.01F
MATTOON        CLEAR     49  41  74 S15G22    30.04F
PARIS*         CLOUDY    51  40  64 S17       30.07F
$$

ILZ079-100>102-240600-
SOUTHWEST ILLINOIS

CITY           SKY/WX    TMP DP  RH WIND       PRES   REMARKS
ALTON          CLEAR     47  42  81 SE8       30.01F
BELLEVILLE     CLEAR     51  45  80 SE9       30.01F
CAHOKIA*       CLEAR     53  41  63 SE7       30.00F
SPARTA*        CLEAR     50  43  78 SE8       30.04F
$$

ILZ064>066-069>071-074>076-080>082-084>086-088>090-092>094-240600-
SOUTH-CENTRAL ILLINOIS

CITY           SKY/WX    TMP DP  RH WIND       PRES   REMARKS
CARBONDALE     CLEAR     50  43  77 S6        30.06S
CAIRO*         CLEAR     58  47  66 S7        30.08S
EFFINGHAM*     CLEAR     49  42  78 SE12G18   30.08F
MARION         CLEAR     52  46  82 SE6       30.07S
MT. VERNON     CLEAR     50  43  77 SE5       30.08
CENTRALIA*     CLEAR     50  44  77 SE10      30.05S
SALEM*         CLEAR     50  42  72 SE8       30.06F
METROPOLIS*    CLEAR     52  44  73 SE3       30.10S
$$

ILZ067-068-072-073-078-083-087-091-240600-
SOUTHEAST ILLINOIS

CITY           SKY/WX    TMP DP  RH WIND       PRES   REMARKS
LAWRENCEVILLE  CLEAR     49  41  74 S9        30.10F
FLORA*         CLEAR     46  41  85 S9        30.08F
FAIRFIELD*     CLEAR     51  43  73 SE6       30.08F
HARRISBURG*    CLEAR     48  44  87 SE3       30.09S
ROBINSON*      CLEAR     48  40  72 SE9       30.10F
CARMI*         CLEAR     47  43  87 SE7       30.10S
$$

ABBREVIATIONS USED IN REMARKS
   TC - TEMPERATURE IN CELSIUS
  WCI - WIND CHILL INDEX
   HX - HEAT INDEX
  VSB - VISIBILITY
$$




USA.gov is the U.S. government's official web portal to all federal, state and local government web resources and services.